Regional Weather Roundup
Issued by NWS

Home | Current Version | Previous Version | Text Only | Print | Product List | Glossary Off
Versions: 1 2 3 4 5 6 7 8 9 10 11 12 13 14 15 16 17 18 19 20 21 22 23 24 25 26 27 28 29 30 31 32 33 34 35 36 37 38 39 40 41 42 43 44 45 46 47 48 49 50

000
ASUS43 KFSD 010902
RWRSD

WEATHER ROUNDUP FOR SOUTH DAKOTA
NATIONAL WEATHER SERVICE SIOUX FALLS SD
400 AM CDT WED APR 01 2015

NOTE: "FAIR" INDICATES FEW OR NO CLOUDS BELOW 12,000 FEET WITH NO
SIGNIFICANT WEATHER AND/OR OBSTRUCTIONS TO VISIBILITY.


SDZ001>005-009-010-012>017-011000-
NORTHWEST AND NORTH CENTRAL SOUTH DAKOTA

CITY           SKY/WX    TMP DP  RH WIND       PRES   REMARKS
BUFFALO          N/A     54  26  34 W8        29.40F
FAITH            N/A     57  22  25 S12       29.44F
MOBRIDGE       CLOUDY    52  30  43 SE7       29.43F
$$

SDZ012>016-024>037-041>051-057-063-072>074-011000-
SOUTHWEST AND SOUTH CENTRAL SOUTH DAKOTA

CITY           SKY/WX    TMP DP  RH WIND       PRES   REMARKS
RAPID CTY ARPT CLOUDY    50  23  34 W3        29.49F
PIERRE         CLOUDY    53  27  36 SE10      29.48F
CUSTER         MOCLDY    53  16  23 SW8       29.62F
ELLSWORTH AFB  CLOUDY    56  22  27 W7        29.49F
PHILIP         CLOUDY    64  18  17 SW6       29.45F
PINE RIDGE     PTCLDY    56  20  24 S16       29.56F
SPEARFISH      FAIR      68  23  18 SW14G22   29.51F
WINNER         FAIR      61  27  27 S21G29    29.54F
$$

SDZ004>011-016>023-039-040-011000-
NORTHEAST SOUTH DAKOTA

CITY           SKY/WX    TMP DP  RH WIND       PRES   REMARKS
ABERDEEN       CLOUDY    52  32  46 S10       29.54F
WATERTOWN      CLOUDY    51  33  50 S13       29.62F
BROOKINGS      MOCLDY    54  32  43 S14       29.68F
SISSETON         N/A     43  34  70 S12       29.58F
$$

SDZ017-020-022-023-036>040-048>070-011000-
SOUTHEAST SOUTH DAKOTA

CITY           SKY/WX    TMP DP  RH WIND       PRES   REMARKS
SIOUX FALLS    CLEAR     56  31  38 S17       29.69F
HURON          MOCLDY    54  32  43 S15       29.57F
MITCHELL       PTCLDY    55  33  43 S18       29.60F
YANKTON        CLEAR     61  32  33 S16G22    29.68F
$$

ABBREVIATIONS USED IN REMARKS
   TC - TEMPERATURE IN CELSIUS
  WCI - WIND CHILL INDEX
   HX - HEAT INDEX
  VSB - VISIBILITY



USA.gov is the U.S. government's official web portal to all federal, state and local government web resources and services.